Weather History for Caslav, Czech Republic

Change the Weather History Date:

Tuesday, June 18, 2013

  Actual Average Record
Temperature  
Mean Temperature 78 °F -  
Max Temperature 93 °F - - ()
Min Temperature 64 °F - - ()
Cooling Degree Days 14    
Growing Degree Days 28 (Base 50)    
Moisture  
Dew Point 68 °F    
Average Humidity 68    
Maximum Humidity 94    
Minimum Humidity 46    
Precipitation  
Precipitation 0.00 in - - ()
Sea Level Pressure  
Sea Level Pressure 30.00 in    
Wind  
Wind Speed 3 mph ()    
Max Wind Speed 8 mph    
Max Gust Speed -    
Visibility 6.2 miles    
Events      
T = Trace of Precipitation, MM = Missing Value Source: Averaged Metar Reports

Daily Weather History Graph

Daily Weather History Graph

Search for Another Location

Airport:

Trip Planner

Search our weather history database for the weather conditions in past years. The results will help you decide how hot, cold, wet, or windy it might be!

Date:

Astronomy

Jun. 18, 2013 Rise Set
Actual Time 4:48 AM CEST 9:10 PM CEST
Civil Twilight 4:04 AM CEST 9:54 PM CEST
Nautical Twilight 2:59 AM CEST 11:00 PM CEST
Astronomical Twilight 1:31 AM CEST 12:27 AM CEST
Moon 3:10 PM CEST (6/18) 1:16 AM CEST (6/18)
Length of Visible Light 17h 50m
Length of Day
16h 21m
Waxing Gibbous, 68% of the Moon is Illuminated
Jun 18
Waxing Gibbous
Jun 23
Full
Jun 30
Last Quarter
Jul 8
New
Jul 16
First Quarter

Hourly Weather History & Observations

Time (CEST) Temp. Heat Index Dew Point Humidity Pressure Visibility Wind Dir Wind Speed Gust Speed Precip Events Conditions
12:00 AM 71.6 °F - 64.4 °F 78% 30.01 in - ESE 3.5 mph - N/A   Clear
1:00 AM 73.4 °F - 64.4 °F 73% 29.98 in - Variable 2.3 mph - N/A   Clear
2:00 AM 69.8 °F - 64.4 °F 83% 29.98 in - Calm Calm - N/A   Clear
3:00 AM 68.0 °F - 64.4 °F 88% 29.98 in - NNE 2.3 mph - N/A   Clear
4:00 AM 68.0 °F - 64.4 °F 88% 29.98 in - NNE 1.2 mph - N/A   Clear
5:00 AM 64.4 °F - 62.6 °F 94% 30.01 in - West 4.6 mph - N/A   Clear
6:00 AM 68.0 °F - 64.4 °F 88% 30.01 in - SSE 3.5 mph - N/A   Clear
7:00 AM 71.6 °F - 66.2 °F 83% 30.01 in - Variable 1.2 mph - N/A   Clear
8:00 AM 75.2 °F - 68.0 °F 78% 30.01 in - East 4.6 mph - N/A   Clear
9:00 AM 77.0 °F - 68.0 °F 74% 30.01 in - SE 3.5 mph - N/A   Clear
10:00 AM 80.6 °F 83.9 °F 69.8 °F 70% 30.01 in - ESE 3.5 mph - N/A   Clear
11:00 AM 84.2 °F 88.4 °F 69.8 °F 62% 29.98 in - SE 5.8 mph - N/A   Clear
11:22 AM 86.0 °F 90.4 °F 69.8 °F 58% 29.98 in - SE 4.6 mph - N/A   Clear
12:00 PM 87.8 °F 93.8 °F 71.6 °F 58% 29.98 in - ESE 3.5 mph - N/A   Clear
1:00 PM 89.6 °F 96.2 °F 71.6 °F 55% 29.98 in - Variable 3.5 mph - N/A   Clear
2:00 PM 91.4 °F 95.4 °F 68.0 °F 46% 29.98 in 6.2 mi ENE 4.6 mph - N/A   Scattered Clouds
3:00 PM 91.4 °F 95.4 °F 68.0 °F 46% 29.98 in 6.2 mi NNE 3.5 mph - N/A   Scattered Clouds
4:00 PM 93.2 °F 100.5 °F 71.6 °F 49% 29.95 in 6.2 mi NW 5.8 mph - N/A   Scattered Clouds
5:00 PM 91.4 °F 98.4 °F 71.6 °F 52% 29.98 in 6.2 mi North 8.1 mph - N/A   Scattered Clouds
6:00 PM 89.6 °F 96.2 °F 71.6 °F 55% 29.98 in 6.2 mi NNW 6.9 mph - N/A   Mostly Cloudy
7:00 PM 87.8 °F 91.4 °F 68.0 °F 52% 30.01 in 6.2 mi North 4.6 mph - N/A   Mostly Cloudy
8:00 PM 86.0 °F 89.4 °F 68.0 °F 55% 30.01 in 6.2 mi North 2.3 mph - N/A   Mostly Cloudy
9:00 PM 80.6 °F 84.6 °F 71.6 °F 74% 30.01 in - WSW 5.8 mph - N/A   Clear
10:00 PM 78.8 °F - 69.8 °F 74% 30.04 in - Variable 2.3 mph - N/A   Clear
11:00 PM 78.8 °F - 71.6 °F 78% 30.04 in - SSW 2.3 mph - N/A   Clear